QPF
0.00 0.00 0.00 0.00 0.00 0.00 0.00 0.00 0.00 0.00 0.00 0.00 0.00 0.00 0.00 0.00 0.00 0.00 0.00 0.00 0.00 0.00 0.00 0.00 0.00 0.00 0.00 0.00 0.00 0.00 0.00 0.00 0.00 0.00 0.00 0.00 0.00 0.00 0.00 0.00 0.00 0.00 0.00 0.00 0.00
0.00 0.00 0.00 0.00 0.00 0.00 0.00 0.00 0.00 0.00 0.00 0.00 0.00 0.00 0.00 0.00 0.00 0.00 0.00 0.00 0.00 0.00 0.00 0.00 0.00 0.00 0.00 0.00 0.00 0.00 0.00 0.00 0.00 0.00 0.00 0.00 0.00 0.00 0.00 0.00 0.00 0.00 0.00 0.00 0.00
0.00 0.00 0.00 0.00 0.00 0.00 0.00 0.00 0.00 0.00 0.00 0.00 0.00 0.00 0.00 0.00 0.00 0.00 0.00 0.00 0.00 0.00 0.00 0.00 0.00 0.00 0.00 0.00 0.00 0.00 0.00 0.00 0.00 0.00 0.00 0.00 0.00 0.00 0.00 0.00 0.00 0.00 0.00 0.00 0.00
0.00 0.00 0.00 0.00 0.00 0.00 0.00 0.00 0.00 0.00 0.00 0.00 0.00 0.00 0.00 0.00 0.00 0.00 0.00 0.00 0.00 0.00 0.00 0.00 0.00 0.00 0.00 0.00 0.00 0.00 0.00 0.00 0.00 0.00 0.00 0.00 0.00 0.00 0.00 0.00 0.00 0.00 0.00 0.00 0.00
0.00 0.00 0.00 0.00 0.00 0.00 0.00 0.00 0.00 0.00 0.00 0.00 0.00 0.00 0.00 0.00 0.00 0.00 0.00 0.00 0.00 0.00 0.00 0.00 0.00 0.00 0.00 0.00 0.00 0.00 0.00 0.00 0.00 0.00 0.00 0.00 0.00 0.00 0.00 0.00 0.00 0.00 0.00 0.00 0.00
0.00 0.00 0.00 0.00 0.00 0.00 0.00 0.00 0.00 0.00 0.00 0.00 0.00 0.00 0.00 0.00 0.00 0.00 0.00 0.00 0.00 0.00 0.00 0.00 0.00 0.00 0.00 0.00 0.00 0.00 0.00 0.00 0.00 0.00 0.00 0.00 0.00 0.00 0.00 0.00 0.00 0.00 0.00 0.00 0.00
0.00 0.00 0.00 0.00 0.00 0.00 0.00 0.00 0.00 0.00 0.00 0.00 0.00 0.00 0.00 0.00 0.00 0.00 0.00 0.00 0.00 0.00 0.00 0.00 0.00 0.00 0.00 0.00 0.00 0.00 0.00 0.00 0.00 0.00 0.00 0.00 0.00 0.00 0.00 0.00 0.00 0.00 0.00 0.00 0.00
0.00 0.00 0.00 0.00 0.00 0.00 0.00 0.00 0.00 0.00 0.00 0.00 0.00 0.00 0.00 0.00 0.00 0.00 0.00 0.00 0.00 0.00 0.00 0.00 0.00 0.00 0.00 0.00 0.00 0.00 0.00 0.00 0.00 0.00 0.00 0.00 0.00 0.00 0.00 0.00 0.00 0.00 0.00 0.00 0.00
0.00 0.00 0.00 0.00 0.00 0.00 0.00 0.00 0.00 0.00 0.00 0.00 0.00 0.00 0.00 0.00 0.00 0.00 0.00 0.00 0.00 0.00 0.00 0.00 0.00 0.00 0.00 0.00 0.00 0.00 0.00 0.00 0.00 0.00 0.00 0.00 0.00 0.00 0.00 0.00 0.00 0.00 0.00 0.00 0.00
0.00 0.00 0.00 0.00 0.00 0.00 0.00 0.00 0.00 0.00 0.00 0.00 0.00 0.00 0.00 0.00 0.00 0.00 0.00 0.00 0.00 0.00 0.00 0.00 0.00 0.00 0.00 0.00 0.00 0.00 0.00 0.00 0.00 0.00 0.00 0.00 0.00 0.00 0.00 0.00 0.00 0.00 0.00 0.00 0.00
0.00 0.00 0.00 0.00 0.00 0.00 0.00 0.00 0.00 0.00 0.00 0.00 0.00 0.00 0.00 0.00 0.00 0.00 0.00 0.00 0.00 0.00 0.00 0.00 0.00 0.00 0.00 0.00 0.00 0.00 0.00 0.00 0.00 0.00 0.00 0.00 0.00 0.00 0.00 0.00 0.00 0.00 0.00 0.00 0.00
0.00 0.00 0.00 0.00 0.00 0.00 0.00 0.00 0.00 0.00 0.00 0.00 0.00 0.00 0.00 0.00 0.00 0.00 0.00 0.00 0.00 0.00 0.00 0.00 0.00 0.00 0.00 0.00 0.00 0.00 0.00 0.00 0.00 0.00 0.00 0.00 0.00 0.00 0.00 0.00 0.00 0.00 0.00 0.00 0.00
0.00 0.00 0.00 0.00 0.00 0.00 0.00 0.00 0.00 0.00 0.00 0.00 0.00 0.00 0.00 0.00 0.00 0.00 0.00 0.00 0.00 0.00 0.00 0.00 0.00 0.00 0.00 0.00 0.00 0.00 0.00 0.00 0.00 0.00 0.00 0.00 0.00 0.00 0.00 0.00 0.00 0.00 0.00 0.00 0.00
0.00 0.00 0.00 0.00 0.00 0.00 0.00 0.00 0.00 0.00 0.00 0.00 0.00 0.00 0.00 0.00 0.00 0.00 0.00 0.00 0.00 0.00 0.00 0.00 0.00 0.00 0.00 0.00 0.00 0.00 0.00 0.00 0.00 0.00 0.00 0.00 0.00 0.00 0.00 0.00 0.00 0.00 0.00 0.00 0.00
0.00 0.00 0.00 0.00 0.00 0.00 0.00 0.00 0.00 0.00 0.00 0.00 0.00 0.00 0.00 0.00 0.00 0.00 0.00 0.00 0.00 0.00 0.00 0.00 0.00 0.00 0.00 0.00 0.00 0.00 0.00 0.00 0.00 0.00 0.00 0.00 0.00 0.00 0.00 0.00 0.00 0.00 0.00 0.00 0.00
0.00 0.00 0.00 0.00 0.00 0.00 0.00 0.00 0.00 0.00 0.00 0.00 0.00 0.00 0.00 0.00 0.00 0.00 0.00 0.00 0.00 0.00 0.00 0.00 0.00 0.00 0.00 0.00 0.00 0.00 0.00 0.00 0.00 0.00 0.00 0.00 0.00 0.00 0.00 0.00 0.00 0.00 0.00 0.00 0.00
0.00 0.00 0.00 0.00 0.00 0.00 0.00 0.00 0.00 0.00 0.00 0.00 0.00 0.00 0.00 0.00 0.00 0.00 0.00 0.00 0.00 0.00 0.00 0.00 0.00 0.00 0.00 0.00 0.00 0.00 0.00 0.00 0.00 0.00 0.00 0.00 0.00 0.00 0.00 0.00 0.00 0.00 0.00 0.00 0.00
0.00 0.00 0.00 0.00 0.00 0.00 0.00 0.00 0.00 0.00 0.00 0.00 0.00 0.00 0.00 0.00 0.00 0.00 0.00 0.00 0.00 0.00 0.00 0.00 0.00 0.00 0.00 0.00 0.00 0.00 0.00 0.03 0.06 0.02 0.01 0.00 0.00 0.00 0.00 0.00 0.00 0.00 0.00 0.00 0.00
0.00 0.00 0.00 0.00 0.00 0.00 0.00 0.00 0.00 0.00 0.00 0.00 0.00 0.00 0.00 0.00 0.00 0.00 0.00 0.00 0.00 0.00 0.00 0.00 0.00 0.00 0.00 0.00 0.00 0.00 0.00 0.01 0.01 0.02 0.05 0.01 0.00 0.00 0.00 0.00 0.00 0.00 0.00 0.00 0.00
0.00 0.00 0.00 0.00 0.00 0.00 0.00 0.00 0.00 0.00 0.00 0.00 0.00 0.00 0.00 0.00 0.00 0.00 0.00 0.00 0.00 0.00 0.00 0.00 0.00 0.00 0.00 0.00 0.00 0.00 0.00 0.01 0.01 0.01 0.02 0.01 0.01 0.01 0.00 0.01 0.00 0.00 0.00 0.00 0.00
0.00 0.00 0.00 0.00 0.00 0.00 0.00 0.00 0.00 0.00 0.00 0.00 0.00 0.00 0.00 0.00 0.00 0.00 0.00 0.00 0.00 0.00 0.00 0.00 0.00 0.00 0.00 0.00 0.00 0.00 0.00 0.00 0.01 0.03 0.09 0.02 0.01 0.01 0.00 0.00 0.00 0.00 0.00 0.00 0.00
0.00 0.00 0.00 0.00 0.00 0.00 0.00 0.00 0.00 0.00 0.00 0.00 0.00 0.00 0.00 0.00 0.00 0.00 0.00 0.00 0.00 0.00 0.00 0.00 0.00 0.00 0.00 0.00 0.00 0.00 0.00 0.00 0.00 0.00 0.00 0.01 0.01 0.01 0.00 0.00 0.00 0.00 0.00 0.00 0.00
0.00 0.00 0.00 0.00 0.00 0.00 0.00 0.00 0.00 0.00 0.00 0.00 0.00 0.00 0.00 0.00 0.00 0.00 0.00 0.00 0.00 0.00 0.00 0.00 0.00 0.00 0.00 0.00 0.00 0.00 0.00 0.00 0.00 0.01 0.00 0.00 0.00 0.00 0.00 0.00 0.00 0.00 0.00 0.00 0.00
0.00 0.00 0.00 0.00 0.00 0.00 0.00 0.00 0.00 0.00 0.00 0.00 0.00 0.00 0.00 0.00 0.00 0.00 0.00 0.00 0.00 0.00 0.00 0.00 0.00 0.00 0.00 0.00 0.00 0.00 0.00 0.00 0.00 0.00 0.00 0.00 0.00 0.00 0.00 0.00 0.00 0.00 0.00 0.00 0.00
0.00 0.00 0.00 0.00 0.00 0.00 0.00 0.00 0.00 0.00 0.00 0.00 0.00 0.00 0.00 0.00 0.00 0.00 0.00 0.00 0.00 0.00 0.00 0.00 0.00 0.00 0.00 0.00 0.00 0.00 0.00 0.00 0.00 0.00 0.00 0.00 0.00 0.00 0.00 0.00 0.00 0.00 0.00 0.00 0.00
0.00 0.00 0.00 0.00 0.00 0.00 0.00 0.00 0.00 0.00 0.00 0.00 0.00 0.00 0.00 0.00 0.00 0.00 0.00 0.00 0.00 0.00 0.00 0.00 0.00 0.00 0.00 0.00 0.00 0.00 0.00 0.00 0.00 0.00 0.00 0.00 0.00 0.00 0.00 0.00 0.00 0.00 0.00 0.00 0.00
0.00 0.00 0.00 0.00 0.00 0.00 0.00 0.00 0.00 0.00 0.00 0.00 0.00 0.00 0.00 0.00 0.00 0.00 0.00 0.00 0.00 0.00 0.00 0.00 0.00 0.00 0.00 0.00 0.00 0.00 0.00 0.00 0.00 0.00 0.00 0.00 0.00 0.00 0.00 0.00 0.00 0.00 0.00 0.00 0.00
MSLP
1023.18 1022.92 1022.48 1022.29 1021.80 1021.66 1021.01 1020.86 1020.29 1019.68 1019.00 1018.94 1018.42 1017.91 1017.37 1016.79 1015.34 1015.05 1014.95 1014.92 1014.53 1013.77 1013.42 1012.60 1011.77 1011.85 1011.53 1011.53 1011.60 1011.77 1012.36 1012.28 1011.19 1010.23 1009.13 1008.53 1008.41 1007.32 1006.28 1006.11 1005.71 1006.05 1006.46 1007.07 1008.53
1023.24 1022.86 1022.61 1022.34 1021.89 1021.51 1020.97 1020.72 1019.81 1019.57 1019.14 1018.79 1017.97 1017.81 1017.64 1017.17 1016.46 1015.31 1015.00 1014.38 1014.11 1013.71 1013.48 1012.87 1012.53 1012.47 1012.34 1012.08 1012.08 1012.27 1012.66 1011.71 1010.54 1009.72 1009.43 1008.41 1009.02 1008.42 1007.38 1006.75 1006.21 1006.38 1006.81 1007.14 1008.84
1023.26 1022.98 1022.50 1021.99 1021.72 1021.12 1020.63 1020.16 1019.89 1019.53 1019.54 1018.19 1018.03 1017.44 1017.36 1017.01 1016.38 1015.72 1014.73 1014.17 1013.82 1013.71 1013.56 1013.02 1012.85 1013.09 1012.99 1012.65 1012.59 1012.69 1012.39 1011.62 1010.59 1009.85 1009.69 1009.28 1007.97 1008.94 1008.18 1007.09 1006.90 1006.70 1007.37 1007.48 1008.95
1023.30 1022.82 1022.40 1022.02 1021.43 1020.79 1020.44 1019.99 1019.59 1019.24 1018.97 1018.64 1018.18 1017.25 1017.39 1016.73 1016.97 1015.69 1014.95 1014.39 1013.97 1013.60 1013.34 1013.21 1013.25 1013.75 1013.95 1013.88 1013.52 1013.30 1012.37 1012.02 1011.34 1010.53 1010.19 1010.04 1008.83 1008.04 1008.00 1006.96 1006.30 1006.08 1006.41 1007.13 1008.41
1023.26 1022.73 1022.16 1021.65 1021.20 1020.85 1020.34 1019.89 1019.47 1019.07 1019.03 1018.69 1017.80 1017.31 1017.23 1016.66 1016.56 1015.38 1015.14 1014.30 1014.04 1013.80 1014.09 1013.99 1014.23 1014.63 1014.66 1014.81 1014.21 1013.75 1013.18 1012.54 1012.00 1011.50 1010.74 1009.94 1009.48 1008.85 1007.19 1007.18 1005.82 1006.16 1006.82 1007.38 1008.22
1023.23 1022.77 1022.31 1021.68 1021.06 1020.49 1019.90 1019.50 1019.01 1018.75 1018.64 1018.35 1017.81 1017.18 1017.02 1016.68 1015.84 1015.60 1014.91 1014.58 1014.64 1014.56 1014.48 1014.43 1014.91 1014.76 1015.04 1015.13 1015.10 1014.70 1013.73 1012.96 1012.04 1011.60 1010.95 1010.04 1009.05 1008.55 1006.73 1006.73 1006.54 1006.53 1006.74 1007.18 1007.54
1023.33 1022.91 1022.34 1021.81 1021.31 1020.59 1019.89 1019.44 1019.03 1018.68 1018.47 1018.04 1017.73 1017.19 1016.64 1016.12 1015.72 1015.25 1015.05 1015.03 1014.84 1014.70 1014.64 1014.53 1014.84 1014.86 1015.35 1015.64 1015.40 1015.09 1014.74 1013.45 1012.44 1011.88 1010.95 1009.64 1008.56 1007.91 1007.31 1007.01 1007.09 1006.92 1006.60 1006.79 1007.04
1023.40 1022.86 1022.34 1021.74 1021.00 1020.30 1019.71 1018.99 1018.53 1018.36 1018.17 1017.86 1017.62 1017.11 1016.75 1015.64 1015.52 1015.42 1015.54 1015.17 1014.56 1014.57 1014.52 1014.37 1014.64 1015.09 1015.71 1015.91 1015.79 1015.84 1015.67 1015.10 1013.75 1012.63 1011.55 1011.01 1008.11 1008.43 1007.68 1007.83 1007.62 1007.26 1006.82 1006.45 1006.42
1023.45 1022.89 1022.26 1021.58 1020.84 1020.14 1019.35 1018.65 1018.26 1018.25 1018.32 1017.99 1017.85 1017.44 1017.07 1015.94 1016.04 1015.86 1015.68 1015.49 1014.89 1014.86 1014.61 1014.41 1014.93 1016.12 1016.54 1017.20 1017.32 1017.48 1017.41 1016.92 1015.74 1014.79 1014.14 1013.39 1010.67 1009.42 1008.65 1008.77 1008.39 1007.67 1006.83 1006.42 1005.85
1023.41 1022.87 1022.34 1021.77 1021.02 1020.05 1019.24 1018.80 1018.40 1018.24 1018.14 1018.02 1017.99 1017.83 1017.13 1016.97 1016.48 1015.99 1015.55 1015.46 1015.53 1015.44 1015.58 1015.99 1016.80 1017.60 1018.47 1018.72 1019.59 1019.14 1018.65 1017.90 1017.66 1016.24 1015.13 1013.90 1011.04 1010.75 1010.07 1009.20 1008.76 1008.44 1007.61 1006.70 1005.88
1023.48 1022.97 1022.51 1021.99 1021.20 1020.13 1019.30 1019.03 1019.47 1018.97 1018.58 1018.85 1018.70 1018.06 1017.45 1016.82 1016.35 1016.08 1015.72 1015.87 1016.38 1016.65 1017.61 1017.83 1018.39 1018.96 1019.20 1019.35 1019.49 1019.49 1019.22 1018.64 1017.80 1016.59 1015.72 1014.61 1012.45 1011.06 1010.33 1009.09 1008.57 1008.30 1008.15 1007.32 1006.17
1023.53 1023.07 1022.51 1021.90 1021.20 1020.23 1019.79 1020.78 1021.67 1021.68 1020.20 1018.75 1018.27 1017.77 1017.22 1016.96 1016.83 1016.38 1016.10 1016.73 1017.37 1017.97 1018.25 1018.68 1018.96 1019.02 1019.03 1019.16 1019.36 1019.43 1019.18 1018.43 1017.04 1016.42 1015.89 1014.82 1012.10 1011.44 1010.38 1009.28 1008.46 1007.72 1007.15 1007.06 1006.50
1023.49 1023.03 1022.39 1021.73 1020.98 1020.87 1021.22 1021.93 1021.73 1021.29 1020.59 1018.98 1018.08 1017.52 1017.29 1017.28 1017.16 1016.85 1016.76 1017.14 1017.93 1018.56 1019.24 1019.55 1019.47 1018.97 1019.03 1019.11 1019.14 1019.15 1018.91 1018.27 1017.49 1016.53 1016.07 1014.60 1011.76 1011.14 1009.91 1008.91 1008.03 1007.06 1006.43 1006.35 1006.21
1023.51 1023.03 1022.34 1021.43 1021.27 1021.73 1021.82 1021.77 1021.51 1021.33 1021.10 1019.58 1018.09 1017.18 1017.06 1017.19 1017.45 1017.08 1017.01 1017.60 1018.44 1019.16 1019.42 1019.66 1019.09 1019.22 1019.13 1019.09 1018.74 1018.68 1018.19 1017.89 1017.36 1016.95 1016.65 1015.79 1012.28 1011.50 1010.41 1009.00 1008.15 1007.28 1006.47 1005.52 1004.99
1023.45 1023.04 1022.46 1021.92 1022.05 1022.16 1022.23 1021.79 1021.38 1021.21 1021.18 1019.67 1018.14 1017.14 1017.58 1017.92 1018.22 1017.83 1017.81 1018.04 1018.97 1019.44 1019.88 1019.92 1019.34 1019.14 1019.16 1019.12 1018.63 1018.30 1017.75 1017.63 1017.54 1017.30 1016.85 1015.75 1014.74 1011.72 1010.51 1009.42 1008.43 1007.49 1006.47 1005.42 1004.72
1023.42 1023.05 1022.68 1022.42 1022.60 1022.26 1022.08 1021.80 1021.65 1022.04 1021.52 1019.78 1018.74 1018.57 1018.67 1018.80 1018.90 1018.96 1019.23 1018.84 1019.66 1020.23 1020.55 1020.58 1019.78 1019.61 1019.39 1018.99 1018.40 1017.93 1017.73 1017.47 1017.18 1017.18 1016.62 1015.70 1014.94 1012.36 1010.95 1009.59 1008.45 1007.43 1007.39 1006.48 1005.29
1023.24 1022.94 1022.80 1022.78 1022.80 1022.36 1022.25 1022.41 1023.09 1022.26 1021.51 1020.72 1019.92 1019.81 1019.98 1020.21 1020.30 1020.56 1020.98 1021.20 1021.84 1021.95 1021.95 1021.45 1020.49 1019.85 1019.53 1019.38 1018.26 1018.32 1018.22 1018.48 1018.26 1017.74 1016.75 1015.44 1014.07 1012.68 1011.24 1010.02 1009.58 1008.79 1007.92 1007.02 1005.93
1022.95 1022.61 1022.63 1022.50 1022.43 1022.47 1022.67 1023.25 1023.53 1022.66 1021.54 1020.86 1020.59 1020.52 1021.02 1021.19 1021.44 1021.53 1021.85 1022.54 1022.83 1022.95 1022.95 1022.73 1021.45 1020.67 1020.32 1020.18 1019.68 1018.98 1019.06 1019.87 1019.99 1019.06 1017.77 1015.68 1013.85 1013.55 1012.62 1011.38 1010.34 1009.65 1008.88 1007.59 1006.77
1022.85 1022.84 1022.73 1022.38 1022.30 1022.53 1023.17 1023.85 1022.79 1022.05 1021.15 1020.93 1020.93 1021.34 1021.83 1021.88 1022.01 1022.29 1022.86 1023.26 1023.49 1023.38 1023.49 1023.31 1022.50 1021.34 1020.61 1020.10 1020.03 1019.39 1019.54 1019.72 1019.82 1019.72 1018.93 1016.64 1014.59 1012.33 1012.54 1011.94 1010.93 1010.67 1009.69 1008.57 1007.79
1023.41 1023.15 1022.66 1022.12 1022.16 1022.72 1023.48 1023.53 1022.53 1021.28 1020.85 1020.83 1021.30 1021.73 1022.28 1022.63 1022.80 1022.97 1023.18 1023.61 1023.68 1023.69 1023.51 1023.92 1023.41 1022.14 1021.27 1020.41 1020.05 1019.96 1020.11 1020.19 1020.38 1020.30 1019.33 1017.41 1016.60 1016.05 1013.93 1012.85 1011.91 1011.94 1011.09 1009.97 1008.80
1023.60 1023.21 1022.28 1022.05 1022.21 1023.03 1024.00 1023.39 1022.09 1020.97 1020.57 1020.93 1021.39 1021.96 1022.53 1022.99 1023.10 1023.22 1023.38 1023.85 1023.80 1023.90 1023.88 1024.19 1024.22 1023.11 1022.24 1021.65 1021.35 1021.03 1021.13 1021.20 1021.12 1021.12 1020.34 1018.72 1017.84 1016.39 1015.16 1013.97 1013.09 1013.20 1012.06 1010.97 1009.93
1023.51 1023.35 1022.25 1021.95 1023.28 1024.38 1024.41 1022.89 1021.70 1021.08 1020.71 1020.88 1021.34 1021.94 1022.56 1023.05 1023.34 1023.48 1023.53 1023.78 1023.88 1023.90 1024.32 1024.49 1024.63 1024.38 1023.20 1022.20 1021.81 1021.95 1022.37 1022.53 1022.60 1022.20 1021.40 1019.96 1018.10 1016.53 1015.87 1015.09 1014.23 1013.83 1013.53 1012.18 1011.42
1023.51 1023.28 1022.39 1022.23 1023.91 1025.00 1024.10 1022.95 1021.91 1021.28 1021.03 1021.22 1021.64 1022.05 1022.65 1023.19 1023.60 1023.73 1023.85 1024.06 1024.11 1024.23 1024.40 1024.61 1025.28 1025.10 1023.93 1023.23 1022.70 1022.80 1022.93 1023.38 1023.41 1022.73 1021.79 1020.94 1018.26 1016.84 1016.63 1015.72 1014.89 1014.23 1013.61 1013.59 1013.12
1023.66 1023.82 1023.59 1023.91 1024.47 1023.99 1023.84 1022.99 1022.16 1021.43 1021.34 1021.38 1021.82 1022.24 1022.85 1023.42 1023.68 1023.94 1024.10 1024.09 1024.09 1024.24 1024.35 1024.62 1025.42 1025.59 1024.96 1024.26 1024.22 1023.81 1023.38 1023.54 1023.87 1023.38 1022.05 1020.68 1019.18 1018.49 1017.88 1017.21 1016.20 1015.59 1015.32 1014.83 1014.34
1023.52 1023.31 1022.84 1024.00 1024.53 1023.83 1023.21 1022.78 1022.15 1021.73 1021.55 1021.60 1022.17 1022.52 1023.12 1023.75 1024.09 1024.39 1024.49 1024.61 1024.50 1024.51 1024.96 1025.39 1025.74 1025.81 1025.37 1025.06 1024.80 1024.17 1023.57 1023.16 1023.08 1022.45 1022.22 1020.36 1019.99 1019.47 1018.75 1017.99 1017.41 1016.78 1015.97 1015.50 1015.21
1022.82 1022.89 1022.85 1023.16 1023.17 1023.40 1023.02 1022.73 1022.00 1021.73 1021.55 1021.86 1022.23 1022.71 1023.10 1023.70 1023.98 1024.52 1024.88 1025.11 1025.17 1025.26 1025.56 1025.98 1026.16 1026.22 1025.59 1024.87 1024.68 1024.04 1023.15 1022.57 1021.98 1021.63 1021.37 1020.69 1020.19 1019.76 1019.18 1018.36 1017.92 1017.48 1016.83 1016.11 1015.05
1021.91 1021.65 1021.78 1022.99 1023.07 1023.09 1022.65 1022.08 1021.64 1021.43 1021.59 1021.43 1022.00 1022.71 1023.20 1023.41 1023.73 1024.08 1024.42 1024.74 1024.95 1025.36 1025.95 1026.49 1026.70 1026.93 1026.26 1025.35 1024.77 1023.93 1022.43 1021.82 1021.33 1021.15 1020.88 1020.74 1020.70 1020.03 1019.33 1018.85 1018.47 1018.01 1017.44 1017.03 1016.70
Thickness
5586 5593 5601 5606 5614 5618 5627 5630 5638 5648 5656 5658 5665 5670 5677 5685 5701 5704 5703 5708 5714 5724 5729 5738 5748 5748 5752 5750 5754 5754 5728 5727 5745 5756 5771 5782 5769 5787 5804 5801 5812 5815 5810 5814 5809
5581 5589 5595 5601 5609 5615 5623 5627 5639 5643 5649 5653 5664 5666 5670 5677 5685 5693 5698 5709 5714 5720 5722 5726 5730 5733 5730 5737 5739 5730 5715 5733 5756 5769 5766 5777 5766 5772 5780 5784 5800 5804 5810 5813 5804
5577 5583 5592 5600 5605 5614 5622 5629 5633 5638 5639 5655 5658 5664 5667 5673 5682 5680 5695 5704 5710 5713 5717 5722 5725 5723 5722 5729 5730 5724 5721 5741 5755 5765 5767 5767 5776 5768 5772 5772 5788 5797 5796 5805 5796
5573 5581 5588 5595 5603 5613 5619 5625 5630 5636 5640 5644 5649 5661 5660 5670 5662 5675 5686 5694 5701 5706 5711 5713 5712 5706 5704 5704 5711 5710 5730 5734 5742 5754 5753 5754 5767 5768 5771 5782 5799 5806 5808 5805 5797
5570 5578 5587 5594 5601 5607 5613 5620 5626 5631 5633 5638 5649 5655 5656 5661 5658 5674 5679 5690 5693 5697 5694 5696 5693 5690 5687 5690 5698 5703 5713 5722 5732 5736 5742 5752 5753 5754 5774 5785 5798 5801 5801 5799 5796
5567 5574 5582 5590 5598 5605 5613 5619 5625 5629 5631 5635 5641 5649 5653 5643 5661 5665 5676 5680 5680 5682 5683 5685 5682 5686 5683 5683 5682 5691 5703 5711 5724 5728 5731 5736 5748 5757 5782 5787 5784 5787 5791 5795 5797
5563 5570 5577 5585 5591 5599 5608 5614 5620 5624 5628 5633 5637 5644 5648 5647 5657 5665 5668 5669 5672 5673 5672 5677 5677 5677 5676 5668 5680 5683 5682 5697 5711 5717 5721 5740 5740 5751 5773 5776 5770 5776 5783 5789 5794
5561 5568 5575 5582 5591 5599 5606 5614 5620 5623 5626 5631 5634 5640 5637 5652 5653 5657 5657 5661 5668 5669 5670 5673 5672 5667 5663 5665 5663 5664 5664 5663 5688 5698 5709 5712 5731 5748 5760 5755 5755 5759 5773 5781 5787
5559 5566 5574 5581 5589 5597 5605 5613 5618 5620 5621 5624 5628 5631 5626 5643 5640 5646 5650 5650 5658 5659 5662 5667 5661 5646 5643 5635 5628 5632 5629 5637 5650 5665 5669 5669 5695 5723 5740 5734 5740 5746 5757 5772 5780
5558 5565 5571 5578 5585 5595 5603 5609 5612 5615 5618 5620 5621 5621 5626 5624 5634 5640 5646 5648 5645 5646 5645 5640 5629 5620 5610 5609 5599 5611 5614 5619 5614 5638 5650 5657 5686 5701 5714 5724 5728 5734 5740 5749 5767
5556 5563 5568 5573 5581 5592 5601 5602 5596 5606 5608 5608 5611 5614 5619 5626 5633 5634 5639 5637 5632 5625 5613 5616 5604 5600 5607 5608 5606 5604 5603 5601 5613 5626 5629 5639 5661 5684 5696 5713 5719 5724 5725 5733 5748
5554 5559 5565 5571 5579 5588 5594 5585 5580 5581 5596 5607 5609 5612 5617 5621 5615 5623 5630 5619 5614 5604 5605 5597 5596 5604 5604 5603 5600 5594 5588 5592 5609 5620 5620 5618 5651 5666 5684 5699 5711 5719 5730 5730 5735
5551 5556 5562 5569 5577 5580 5577 5573 5576 5580 5586 5599 5606 5607 5608 5612 5607 5611 5618 5612 5602 5595 5590 5587 5596 5600 5597 5590 5586 5583 5574 5577 5583 5599 5599 5601 5636 5649 5675 5687 5698 5714 5724 5727 5729
5547 5552 5560 5568 5571 5567 5568 5570 5573 5575 5562 5584 5593 5601 5605 5604 5599 5609 5610 5604 5593 5586 5587 5585 5591 5587 5583 5579 5579 5568 5573 5571 5569 5569 5557 5585 5592 5626 5643 5663 5678 5690 5704 5716 5726
5545 5550 5556 5563 5562 5561 5563 5567 5570 5569 5525 5585 5588 5601 5594 5592 5590 5593 5598 5595 5583 5581 5577 5572 5578 5576 5573 5569 5570 5562 5566 5556 5552 5545 5542 5566 5549 5600 5616 5633 5653 5667 5682 5697 5711
5542 5546 5551 5555 5556 5558 5560 5564 5563 5526 5513 5576 5581 5576 5576 5579 5581 5580 5577 5584 5578 5567 5565 5560 5568 5567 5562 5560 5558 5558 5549 5541 5536 5530 5530 5545 5542 5569 5585 5610 5631 5655 5653 5663 5682
5540 5544 5547 5549 5549 5554 5556 5554 5525 5511 5568 5566 5567 5567 5563 5562 5562 5561 5554 5548 5540 5539 5538 5543 5552 5556 5554 5546 5550 5540 5529 5507 5512 5513 5521 5540 5540 5559 5575 5591 5596 5611 5625 5638 5655
5537 5542 5544 5546 5548 5549 5548 5534 5512 5546 5563 5566 5563 5561 5554 5553 5551 5550 5549 5536 5536 5536 5525 5519 5530 5541 5542 5537 5532 5529 5524 5480 5480 5504 5511 5533 5539 5545 5557 5571 5579 5591 5598 5619 5635
5533 5536 5538 5542 5544 5544 5537 5493 5514 5548 5563 5558 5558 5550 5545 5546 5546 5541 5534 5530 5530 5529 5524 5514 5519 5535 5540 5534 5530 5525 5513 5518 5502 5502 5503 5522 5537 5562 5556 5558 5568 5569 5584 5603 5619
5522 5527 5532 5538 5540 5536 5521 5522 5548 5561 5560 5557 5548 5546 5536 5533 5532 5530 5531 5528 5526 5524 5526 5518 5501 5526 5527 5531 5526 5518 5517 5502 5502 5499 5507 5522 5518 5511 5536 5548 5559 5557 5567 5582 5603
5514 5521 5529 5533 5534 5523 5504 5507 5548 5558 5557 5550 5542 5539 5533 5526 5527 5528 5530 5522 5519 5516 5515 5510 5502 5505 5518 5515 5507 5503 5492 5496 5500 5492 5503 5510 5505 5520 5527 5536 5539 5539 5551 5564 5582
5507 5503 5524 5528 5506 5479 5490 5534 5549 5551 5551 5547 5542 5538 5529 5525 5520 5521 5525 5514 5515 5513 5504 5503 5491 5484 5497 5507 5506 5504 5485 5481 5478 5481 5484 5498 5506 5517 5520 5526 5533 5534 5531 5551 5561
5499 5496 5516 5520 5482 5465 5506 5530 5539 5542 5542 5539 5535 5534 5527 5518 5513 5512 5514 5507 5507 5503 5497 5498 5474 5457 5494 5504 5498 5488 5484 5472 5469 5474 5481 5458 5500 5514 5510 5518 5526 5524 5528 5534 5541
5485 5484 5493 5494 5486 5501 5513 5522 5528 5536 5533 5534 5531 5528 5520 5515 5513 5508 5504 5506 5501 5499 5501 5496 5476 5473 5458 5482 5469 5468 5470 5465 5457 5431 5454 5477 5486 5492 5495 5499 5508 5510 5511 5517 5519
5471 5485 5500 5479 5479 5495 5509 5514 5520 5520 5528 5527 5522 5518 5509 5501 5499 5497 5496 5491 5494 5497 5484 5478 5460 5471 5471 5469 5465 5464 5465 5465 5456 5460 5445 5481 5475 5475 5483 5490 5491 5496 5502 5505 5507
5470 5477 5486 5489 5493 5498 5501 5493 5510 5518 5516 5514 5510 5507 5503 5495 5494 5489 5487 5483 5477 5481 5475 5468 5451 5463 5454 5466 5462 5461 5466 5467 5467 5467 5463 5465 5465 5471 5472 5479 5482 5483 5487 5490 5499
5469 5480 5484 5479 5484 5482 5482 5497 5505 5513 5515 5513 5508 5498 5495 5493 5493 5489 5484 5481 5480 5471 5464 5459 5453 5443 5446 5464 5457 5422 5461 5472 5471 5471 5469 5458 5456 5457 5463 5466 5466 5467 5473 5475 5475